EW9274 Weather Reports


time (UTC)temp
F
wind
direction
speed
knots
gust
knots
rain 1hr
in
rain 24hr
in
rain mn
in
humidity
%
barometer
mb
20260503232002 68 198 7.8 15.6 0.00 0.00 0.00 39 1004.3
20260503231516 68 225 6.1 16.5 0.00 0.00 0.00 38 1004.3
20260503231006 68 329 7.0 16.5 0.00 0.00 0.00 38 1004.3
20260503230506 68 235 7.8 20.9 0.00 0.00 0.00 38 1004.3
20260503230012 68 253 6.1 20.9 0.00 0.00 0.00 38 1004.5
20260503225505 69 226 7.0 19.1 0.00 0.00 0.00 38 1004.4
20260503225003 68 236 1.7 19.1 0.00 0.00 0.00 39 1004.4
20260503224517 68 254 9.6 18.2 0.00 0.00 0.00 39 1004.5
20260503224002 68 259 9.6 18.2 0.00 0.00 0.00 39 1004.5
20260503223502 68 231 7.8 20.0 0.00 0.00 0.00 39 1004.6
20260503223016 68 360 10.4 20.0 0.00 0.00 0.00 39 1004.6
20260503222503 68 257 7.0 16.5 0.00 0.00 0.00 39 1004.6
20260503222004 68 211 7.0 17.4 0.00 0.00 0.00 39 1004.7
20260503221516 68 223 5.2 17.4 0.00 0.00 0.00 39 1004.8
20260503221010 68 306 6.1 14.8 0.00 0.00 0.00 39 1004.9
20260503220503 68 277 7.0 15.6 0.00 0.00 0.00 39 1004.9
20260503220037 68 76 3.5 15.6 0.00 0.00 0.00 40 1004.9
20260503215507 67 215 7.0 16.5 0.00 0.00 0.00 39 1004.9
20260503215002 67 36 6.1 21.7 0.00 0.00 0.00 39 1005.0
20260503214519 67 252 11.3 21.7 0.00 0.00 0.00 39 1004.9
20260503214003 67 218 9.6 21.7 0.00 0.00 0.00 38 1004.8
20260503213505 68 245 5.2 21.7 0.00 0.00 0.00 40 1005.0
20260503213024 67 259 10.4 21.7 0.00 0.00 0.00 38 1005.1
20260503212502 68 210 7.8 16.5 0.00 0.00 0.00 39 1005.1
20260503212006 67 267 8.7 19.1 0.00 0.00 0.00 39 1005.1
20260503211521 67 273 7.0 24.3 0.00 0.00 0.00 39 1005.0
20260503211003 67 234 8.7 24.3 0.00 0.00 0.00 39 1005.0
20260503210505 68 252 11.3 22.6 0.00 0.00 0.00 39 1005.1
20260503210020 67 192 4.3 22.6 0.00 0.00 0.00 40 1005.1
20260503205503 67 305 11.3 22.6 0.00 0.00 0.00 39 1005.3
20260503205008 67 271 9.6 19.1 0.00 0.00 0.00 38 1005.4
20260503204521 68 232 6.1 15.6 0.00 0.00 0.00 40 1005.5
20260503204003 67 245 4.3 15.6 0.00 0.00 0.00 43 1005.6
20260503203505 66 237 7.8 21.7 0.00 0.00 0.00 43 1005.7
20260503203029 66 193 7.0 21.7 0.00 0.00 0.00 43 1005.6
20260503202503 66 143 10.4 18.2 0.00 0.00 0.00 44 1005.8
20260503202009 66 302 4.3 18.2 0.00 0.00 0.00 45 1006.0
20260503201521 65 253 7.0 20.9 0.00 0.00 0.00 46 1006.1
20260503201011 64 166 11.3 21.7 0.00 0.00 0.00 45 1006.2
20260503200508 64 36 10.4 21.7 0.00 0.00 0.00 45 1006.6
20260503200024 64 233 7.0 23.5 0.00 0.00 0.00 44 1006.5
20260503195502 64 156 7.0 23.5 0.00 0.00 0.00 45 1006.7
20260503195008 64 180 8.7 25.2 0.00 0.00 0.00 44 1006.6
20260503194506 64 157 8.7 25.2 0.00 0.00 0.00 43 1006.7
20260503194005 65 247 10.4 24.3 0.00 0.00 0.00 42 1006.7
20260503193511 64 202 9.6 17.4 0.00 0.00 0.00 42 1006.9
20260503193008 64 292 7.0 24.3 0.00 0.00 0.00 41 1006.9
20260503192505 65 119 9.6 26.1 0.00 0.00 0.00 39 1007.0
20260503192009 65 244 12.2 26.1 0.00 0.00 0.00 39 1006.8
20260503191513 65 72 9.6 22.6 0.00 0.00 0.00 40 1006.8
20260503191009 65 218 10.4 21.7 0.00 0.00 0.00 40 1006.8
20260503190509 65 222 7.8 22.6 0.00 0.00 0.00 39 1006.9
20260503190005 65 203 8.7 22.6 0.00 0.00 0.00 39 1006.9
20260503185503 65 188 10.4 21.7 0.00 0.00 0.00 39 1007.0
20260503185006 65 255 10.4 19.1 0.00 0.00 0.00 39 1007.0
20260503184508 65 211 8.7 31.3 0.00 0.00 0.00 40 1007.1
20260503184007 65 117 6.1 31.3 0.00 0.00 0.00 40 1007.2
20260503183513 65 211 11.3 20.9 0.00 0.00 0.00 40 1007.1
20260503183010 65 209 7.0 19.1 0.00 0.00 0.00 41 1007.2
20260503182505 65 86 5.2 19.1 0.00 0.00 0.00 41 1007.3
20260503182010 64 227 7.0 15.6 0.00 0.00 0.00 43 1007.4
20260503181509 64 220 8.7 14.8 0.00 0.00 0.00 44 1007.5
20260503181006 63 234 7.0 13.9 0.00 0.00 0.00 45 1007.6
20260503180509 63 209 5.2 17.4 0.00 0.00 0.00 47 1007.6
20260503180026 62 164 9.6 17.4 0.00 0.00 0.00 45 1007.8
20260503175506 62 225 7.8 16.5 0.00 0.00 0.00 47 1007.8
20260503175013 62 225 5.2 19.1 0.00 0.00 0.00 47 1007.8
20260503174526 61 236 8.7 21.7 0.00 0.00 0.00 46 1007.9
20260503174008 61 196 5.2 21.7 0.00 0.00 0.00 48 1008.2
20260503173507 61 238 9.6 20.9 0.00 0.00 0.00 48 1008.3
20260503173017 60 99 9.6 20.9 0.00 0.00 0.00 48 1008.4
20260503172506 60 202 8.7 19.1 0.00 0.00 0.00 48 1008.4
20260503172011 61 198 3.5 12.2 0.00 0.00 0.00 48 1008.5
20260503171516 59 204 6.1 15.6 0.00 0.00 0.00 51 1008.8
20260503171010 58 193 7.8 15.6 0.00 0.00 0.00 52 1008.7
20260503170509 57 217 6.1 15.6 0.00 0.00 0.00 54 1008.8
20260503151004 57 274 3.5 22.6 0.00 0.00 0.00 52 1010.2
20260503150505 57 231 10.4 22.6 0.00 0.00 0.00 50 1010.2
20260503131010 53 155 4.3 12.2 0.00 0.00 0.00 51 1011.2
20260503130503 53 237 6.1 12.2 0.00 0.00 0.00 51 1011.2
20260503110503 49 238 4.3 7.8 0.00 0.00 0.00 50 1011.2
20260503090505 47 253 2.6 7.8 0.00 0.00 0.00 52 1011.8
20260503081535 47 207 2.6 6.1 0.00 0.00 0.00 52 1012.2
20260503081006 47 206 2.6 6.1 0.00 0.00 0.00 52 1012.2
20260503080511 47 182 2.6 5.2 0.00 0.00 0.00 53 1012.3
20260503072507 47 224 2.6 5.2 0.00 0.00 0.00 52 1012.5
20260503072002 46 265 2.6 5.2 0.00 0.00 0.00 53 1012.7
20260503071514 46 230 1.7 5.2 0.00 0.00 0.00 53 1012.7
20260503071009 46 203 2.6 6.1 0.00 0.00 0.00 53 1012.8
20260503070502 46 257 2.6 6.1 0.00 0.00 0.00 53 1012.8
20260503055002 46 197 1.7 3.5 0.00 0.00 0.00 54 1013.4
20260503054523 46 206 0.9 3.5 0.00 0.00 0.00 54 1013.4
20260503054006 46 190 0.9 3.5 0.00 0.00 0.00 54 1013.4
20260503053506 46 196 0.9 3.5 0.00 0.00 0.00 54 1013.4
20260503053020 46 187 1.7 3.5 0.00 0.00 0.00 55 1013.5
20260503052501 46 200 0.9 3.5 0.00 0.00 0.00 55 1013.5
20260503052006 46 240 0.9 4.3 0.00 0.00 0.00 55 1013.6
20260503051524 46 207 0.9 5.2 0.00 0.00 0.00 55 1013.6
20260503051009 46 161 1.7 4.3 0.00 0.00 0.00 55 1013.5
20260503050506 45 189 0.9 2.6 0.00 0.00 0.00 56 1013.6
20260503050035 45 225 0.9 2.6 0.00 0.00 0.00 56 1013.6
20260503045504 45 198 0.9 2.6 0.00 0.00 0.00 56 1013.6
20260503045010 45 196 0.9 1.7 0.00 0.00 0.00 56 1013.6
20260503044524 45 205 0.9 2.6 0.00 0.00 0.00 56 1013.7
20260503044002 46 198 0.9 2.6 0.00 0.00 0.00 56 1013.7
20260503043506 45 215 0.9 2.6 0.00 0.00 0.00 56 1013.8
20260503043027 45 204 0.9 1.7 0.00 0.00 0.00 56 1013.8
20260503042502 45 207 0.9 1.7 0.00 0.00 0.00 58 1013.8
20260503042010 45 206 0.0 1.7 0.00 0.00 0.00 58 1013.8
20260503041528 45 206 0.0 1.7 0.00 0.00 0.00 58 1013.9
20260503041003 45 206 0.0 1.7 0.00 0.00 0.00 58 1013.9
20260503040506 45 206 0.9 1.7 0.00 0.00 0.00 58 1013.9
20260503040035 45 204 0.9 1.7 0.00 0.00 0.00 57 1014.0
20260503035503 45 194 0.9 1.7 0.00 0.00 0.00 57 1014.1
20260503035006 46 213 0.0 1.7 0.00 0.00 0.00 57 1014.1
20260503034535 46 205 0.9 2.6 0.00 0.00 0.00 57 1014.1
20260503034005 46 195 1.7 2.6 0.00 0.00 0.00 57 1014.2
20260503033508 46 211 0.0 1.7 0.00 0.00 0.00 57 1014.2
20260503033008 46 202 0.9 1.7 0.00 0.00 0.00 58 1014.2
20260503032510 46 227 0.9 1.7 0.00 0.00 0.00 58 1014.2
20260503032017 46 221 0.9 2.6 0.00 0.00 0.00 58 1014.2
20260503031508 46 250 0.9 1.7 0.00 0.00 0.00 58 1014.2
20260503031011 46 226 0.9 1.7 0.00 0.00 0.00 59 1014.2
20260503030508 46 227 0.0 1.7 0.00 0.00 0.00 58 1014.3
20260503030009 46 227 0.9 1.7 0.00 0.00 0.00 58 1014.3
20260503025505 46 249 0.0 1.7 0.00 0.00 0.00 58 1014.4
20260503025005 46 249 0.9 1.7 0.00 0.00 0.00 58 1014.5
20260503024511 47 249 0.9 1.7 0.00 0.00 0.00 57 1014.4
20260503024007 47 249 0.9 1.7 0.00 0.00 0.00 57 1014.4
20260503023508 47 249 0.0 1.7 0.00 0.00 0.00 56 1014.4
20260503023011 47 249 0.9 1.7 0.00 0.00 0.00 55 1014.4
20260503022509 47 249 0.9 1.7 0.00 0.00 0.00 55 1014.4
20260503022011 48 249 0.9 1.7 0.00 0.00 0.00 55 1014.4
20260503021512 48 248 0.9 1.7 0.00 0.00 0.00 54 1014.4
20260503021006 48 165 0.0 1.7 0.00 0.00 0.00 53 1014.4
20260503020509 49 165 0.0 1.7 0.00 0.00 0.00 52 1014.4
20260503020016 49 165 0.0 1.7 0.00 0.00 0.00 51 1014.3
20260503015505 49 165 0.0 3.5 0.00 0.00 0.00 50 1014.3
20260503015010 50 175 0.9 3.5 0.00 0.00 0.00 49 1014.3
20260503014526 50 185 0.9 1.7 0.00 0.00 0.00 45 1014.2
20260503014005 51 227 0.0 1.7 0.00 0.00 0.00 45 1014.1
20260503013513 51 227 0.9 1.7 0.00 0.00 0.00 44 1014.1
20260503013024 51 227 0.0 1.7 0.00 0.00 0.00 43 1014.0
20260503012507 52 227 0.0 1.7 0.00 0.00 0.00 43 1014.1
20260503012013 52 227 0.0 1.7 0.00 0.00 0.00 42 1014.0
20260503011518 52 227 0.0 1.7 0.00 0.00 0.00 41 1014.0
20260503011007 53 227 0.0 2.6 0.00 0.00 0.00 40 1014.1
20260503010513 53 226 0.9 3.5 0.00 0.00 0.00 40 1014.1
20260503010020 53 234 0.9 4.3 0.00 0.00 0.00 39 1014.2
20260503005510 53 220 1.7 4.3 0.00 0.00 0.00 38 1014.2
20260503005009 54 216 0.9 5.2 0.00 0.00 0.00 38 1014.3
20260503004516 54 259 0.9 4.3 0.00 0.00 0.00 38 1014.2
20260503004007 54 248 0.9 4.3 0.00 0.00 0.00 37 1014.1
20260503003508 55 231 1.7 7.0 0.00 0.00 0.00 37 1014.1
20260503003019 55 243 2.6 7.0 0.00 0.00 0.00 37 1014.1
20260503002510 55 221 2.6 7.8 0.00 0.00 0.00 36 1014.2
20260503002014 55 215 1.7 8.7 0.00 0.00 0.00 36 1014.2
20260503001520 56 190 2.6 12.2 0.00 0.00 0.00 35 1014.3
20260503001011 56 320 4.3 12.2 0.00 0.00 0.00 34 1014.2
20260503000511 56 217 1.7 12.2 0.00 0.00 0.00 35 1014.3
20260503000020 56 262 4.3 12.2 0.00 0.00 0.00 34 1014.4
20260502235508 57 238 1.7 7.8 0.00 0.00 0.00 34 1014.4
20260502235004 57 229 4.3 9.6 0.00 0.00 0.00 34 1014.4
20260502234533 57 232 4.3 9.6 0.00 0.00 0.00 34 1014.4
20260502234009 57 283 3.5 8.7 0.00 0.00 0.00 34 1014.5
20260502233513 57 255 5.2 9.6 0.00 0.00 0.00 33 1014.5
20260502233024 57 206 4.3 9.6 0.00 0.00 0.00 32 1014.6
20260502232509 58 193 0.9 10.4 0.00 0.00 0.00 33 1014.7